Voltar ao catálogo

STARLINK-11703

AtivoComunicaçõesVLEO
NORAD 63759·PAYLOAD·🇺🇸 United States

Lançado Apr 29, 2025 de Cape Canaveral Space Force Station

Loading…

Próximas Passagens (próximas 24 horas)

TLE

AtualizadoSource: CelesTrak SupGP

Época: Sep 14, 2026, 21:37 UTC

1 63759C 25089J   26257.90118056  .00068925  00000+0  53554-3 0  2577
2 63759  43.0005 231.6000 0001507 260.7108 151.2530 15.70795701    13

Acompanhe STARLINK-11703 em tempo real com AllMySat

Download on the App Store